Location: Limoges
(45.8354°N, 1.2645°E)
Time: 19:37:44
(UTC+02:00)

Courier 1B Rocket - Pass Details

Date: 28 February 2024
Orbit: 920 x 1201 km, 28.2° (Epoch: 20 April)

Event Time Altitude Azimuth Distance (km) Brightness Sun altitude
Rises 02:35:38 0° 218° (SW) 3,662 - -47.9°
Reaches altitude 10° 02:40:12 10° 190° (S) 2,662 - -47.4°
Maximum altitude 02:42:33 12° 168° (SSE) 2,485 - -47.2°
Drops below altitude 10° 02:44:53 10° 146° (SE) 2,624 - -47.0°
Sets 02:49:18 0° 117° (ESE) 3,549 - -46.5°
